When you browse on this site, cookies collect data to enhance your experience and personalize the content and advertising you see.
Visit our Privacy Policy to learn more. By continuing to use the site, you agree to this use of cookies and data.
  • In Österreich
  • Länderverzeichnis
  • Für 7 Tage
  • Wassertemperatur
  • Satellitenkarten
  • Wetterkarte
  • News
  • Widgets
  • user-avatar
    Anmelden

    Stündliche Wetter Kairo

    Heute, 19 November, Montag

    Zeit Temperatur Niederschläge Wind Luftdruck Luftfeuchtigkeit
    00:00 +20°C° 0 mm 1 m/S 758 mmHg 71%
    01:00 +19°C° 0 mm 1 m/S 758 mmHg 74%
    02:00 +19°C° 0 mm 1 m/S 757 mmHg 78%
    03:00 +18°C° 0 mm 1 m/S 758 mmHg 79%
    04:00 +18°C° 0 mm 1 m/S 758 mmHg 80%
    05:00 +18°C° 0 mm 1 m/S 758 mmHg 82%
    06:00 +19°C° 0 mm 1 m/S 758 mmHg 77%
    07:00 +20°C° 0 mm 1 m/S 759 mmHg 73%
    08:00 +21°C° 0 mm 1 m/S 759 mmHg 69%
    09:00 +22°C° 0 mm 1 m/S 759 mmHg 61%
    10:00 +24°C° 0 mm 1 m/S 759 mmHg 53%
    11:00 +25°C° 0 mm 2 m/S 759 mmHg 46%
    12:00 +26°C° 0 mm 2 m/S 759 mmHg 41%
    13:00 +27°C° 0 mm 2 m/S 759 mmHg 36%
    14:00 +28°C° 0 mm 2 m/S 759 mmHg 32%
    15:00 +27°C° 0 mm 2 m/S 759 mmHg 33%
    16:00 +26°C° 0 mm 2 m/S 759 mmHg 34%
    17:00 +25°C° 0 mm 2 m/S 759 mmHg 36%
    18:00 +24°C° 0 mm 2 m/S 759 mmHg 39%
    19:00 +23°C° 0 mm 2 m/S 759 mmHg 43%
    20:00 +23°C° 0 mm 2 m/S 760 mmHg 47%
    21:00 +21°C° 0 mm 2 m/S 760 mmHg 52%
    22:00 +20°C° 0 mm 2 m/S 760 mmHg 57%
    23:00 +20°C° 0 mm 2 m/S 760 mmHg 62%

    Morgen, 20 November, Dienstag

    Zeit Temperatur Niederschläge Wind Luftdruck Luftfeuchtigkeit
    00:00 +20°C° 0 mm 2 m/S 760 mmHg 65%
    01:00 +19°C° 0 mm 2 m/S 761 mmHg 68%
    02:00 +19°C° 0 mm 2 m/S 761 mmHg 71%
    03:00 +18°C° 0 mm 2 m/S 761 mmHg 73%
    04:00 +18°C° 0 mm 2 m/S 761 mmHg 76%
    05:00 +18°C° 0 mm 2 m/S 761 mmHg 78%
    06:00 +19°C° 0 mm 2 m/S 761 mmHg 75%
    07:00 +19°C° 0 mm 2 m/S 761 mmHg 72%
    08:00 +20°C° 0 mm 2 m/S 762 mmHg 69%
    09:00 +23°C° 0 mm 2 m/S 762 mmHg 59%
    10:00 +25°C° 0 mm 3 m/S 762 mmHg 50%
    11:00 +26°C° 0 mm 3 m/S 762 mmHg 41%
    12:00 +27°C° 0 mm 3 m/S 761 mmHg 37%
    13:00 +28°C° 0 mm 3 m/S 761 mmHg 33%
    14:00 +29°C° 0 mm 3 m/S 760 mmHg 29%
    15:00 +28°C° 0 mm 3 m/S 760 mmHg 32%
    16:00 +27°C° 0 mm 3 m/S 760 mmHg 35%
    17:00 +26°C° 0 mm 3 m/S 760 mmHg 38%
    18:00 +25°C° 0 mm 3 m/S 760 mmHg 43%
    19:00 +24°C° 0 mm 3 m/S 761 mmHg 48%
    20:00 +22°C° 0 mm 3 m/S 761 mmHg 53%
    21:00 +21°C° 0 mm 3 m/S 761 mmHg 58%
    22:00 +21°C° 0 mm 3 m/S 761 mmHg 62%
    23:00 +20°C° 0 mm 3 m/S 761 mmHg 66%

    übermorgen, 21 November, Mittwoch

    Zeit Temperatur Niederschläge Wind Luftdruck Luftfeuchtigkeit
    00:00 +20°C° 0 mm 2 m/S 760 mmHg 67%
    01:00 +20°C° 0 mm 2 m/S 760 mmHg 68%
    02:00 +19°C° 0 mm 2 m/S 760 mmHg 69%
    03:00 +19°C° 0 mm 2 m/S 760 mmHg 70%
    04:00 +18°C° 0 mm 2 m/S 759 mmHg 72%
    05:00 +19°C° 0 mm 1 m/S 759 mmHg 73%
    06:00 +20°C° 0 mm 1 m/S 759 mmHg 69%
    07:00 +20°C° 0 mm 1 m/S 760 mmHg 66%
    08:00 +21°C° 0 mm 1 m/S 760 mmHg 62%
    09:00 +23°C° 0 mm 2 m/S 760 mmHg 53%
    10:00 +25°C° 0 mm 2 m/S 760 mmHg 44%
    11:00 +26°C° 0 mm 2 m/S 760 mmHg 34%
    12:00 +27°C° 0 mm 3 m/S 759 mmHg 31%
    13:00 +28°C° 0 mm 3 m/S 759 mmHg 27%
    14:00 +29°C° 0 mm 3 m/S 758 mmHg 23%
    15:00 +28°C° 0 mm 3 m/S 758 mmHg 26%
    16:00 +27°C° 0 mm 3 m/S 758 mmHg 28%
    17:00 +26°C° 0 mm 3 m/S 758 mmHg 30%
    18:00 +25°C° 0 mm 2 m/S 758 mmHg 33%
    19:00 +24°C° 0 mm 2 m/S 758 mmHg 37%
    20:00 +23°C° 0 mm 2 m/S 758 mmHg 40%
    21:00 +23°C° 0 mm 2 m/S 758 mmHg 41%
    22:00 +23°C° 0 mm 1 m/S 758 mmHg 42%
    23:00 +22°C° 0 mm 1 m/S 758 mmHg 44%

    22 November, Donnerstag

    Zeit Temperatur Niederschläge Wind Luftdruck Luftfeuchtigkeit
    00:00 +22°C° 0 mm 1 m/S 758 mmHg 43%
    01:00 +22°C° 0 mm 1 m/S 757 mmHg 42%
    02:00 +22°C° 0 mm 1 m/S 757 mmHg 41%
    03:00 +22°C° 0 mm 1 m/S 757 mmHg 41%
    04:00 +22°C° 0 mm 1 m/S 757 mmHg 41%
    05:00 +22°C° 0 mm 1 m/S 757 mmHg 41%
    06:00 +23°C° 0 mm 1 m/S 757 mmHg 39%
    07:00 +23°C° 0 mm 1 m/S 757 mmHg 36%
    08:00 +24°C° 0 mm 1 m/S 758 mmHg 34%
    09:00 +25°C° 0 mm 2 m/S 757 mmHg 31%
    10:00 +27°C° 0 mm 2 m/S 757 mmHg 27%
    11:00 +28°C° 0 mm 3 m/S 757 mmHg 23%
    12:00 +29°C° 0 mm 4 m/S 756 mmHg 24%
    13:00 +29°C° 0 mm 4 m/S 756 mmHg 24%
    14:00 +30°C° 0 mm 5 m/S 755 mmHg 25%
    15:00 +28°C° 0 mm 5 m/S 755 mmHg 31%
    16:00 +27°C° 0 mm 5 m/S 756 mmHg 37%
    17:00 +26°C° 0 mm 6 m/S 756 mmHg 43%
    18:00 +25°C° 0.1 mm 5 m/S 756 mmHg 49%
    19:00 +23°C° 0.1 mm 5 m/S 757 mmHg 55%
    20:00 +21°C° 0.1 mm 4 m/S 757 mmHg 61%
    21:00 +21°C° 0 mm 4 m/S 757 mmHg 65%
    22:00 +20°C° 0 mm 3 m/S 757 mmHg 69%
    23:00 +20°C° 0 mm 3 m/S 758 mmHg 73%

    23 November, Freitag

    Zeit Temperatur Niederschläge Wind Luftdruck Luftfeuchtigkeit
    00:00 +19°C° 0 mm 3 m/S 757 mmHg 76%
    01:00 +19°C° 0 mm 3 m/S 757 mmHg 78%
    02:00 +19°C° 0 mm 3 m/S 757 mmHg 81%
    03:00 +18°C° 0 mm 3 m/S 757 mmHg 82%
    04:00 +18°C° 0 mm 3 m/S 757 mmHg 83%
    05:00 +18°C° 0 mm 3 m/S 757 mmHg 84%
    06:00 +18°C° 0 mm 3 m/S 757 mmHg 82%
    07:00 +18°C° 0 mm 4 m/S 758 mmHg 79%
    08:00 +19°C° 0 mm 4 m/S 758 mmHg 77%
    09:00 +20°C° 0 mm 4 m/S 758 mmHg 69%
    10:00 +22°C° 0 mm 4 m/S 758 mmHg 60%
    11:00 +23°C° 0 mm 5 m/S 758 mmHg 52%
    12:00 +23°C° 0.2 mm 5 m/S 757 mmHg 50%
    13:00 +24°C° 0.2 mm 6 m/S 757 mmHg 48%
    14:00 +24°C° 0.2 mm 6 m/S 756 mmHg 47%
    15:00 +23°C° 0.2 mm 6 m/S 756 mmHg 49%
    16:00 +22°C° 0.2 mm 6 m/S 757 mmHg 51%
    17:00 +22°C° 0.2 mm 6 m/S 757 mmHg 54%
    18:00 +21°C° 0.1 mm 5 m/S 757 mmHg 58%
    19:00 +20°C° 0.1 mm 5 m/S 757 mmHg 62%
    20:00 +19°C° 0.1 mm 4 m/S 758 mmHg 66%
    21:00 +19°C° 0 mm 5 m/S 758 mmHg 68%
    22:00 +17°C° 0 mm 5 m/S 758 mmHg 70%
    23:00 +17°C° 0 mm 5 m/S 758 mmHg 71%

    24 November, Samstag

    Zeit Temperatur Niederschläge Wind Luftdruck Luftfeuchtigkeit
    00:00 +17°C° 0 mm 5 m/S 757 mmHg 72%
    01:00 +16°C° 0 mm 5 m/S 757 mmHg 73%
    02:00 +16°C° 0 mm 5 m/S 757 mmHg 74%
    03:00 +16°C° 0.1 mm 5 m/S 757 mmHg 75%
    04:00 +16°C° 0.1 mm 5 m/S 757 mmHg 76%
    05:00 +15°C° 0.1 mm 5 m/S 757 mmHg 77%
    06:00 +16°C° 0 mm 6 m/S 757 mmHg 75%
    07:00 +16°C° 0 mm 6 m/S 758 mmHg 73%
    08:00 +17°C° 0 mm 7 m/S 758 mmHg 70%
    09:00 +18°C° 0 mm 7 m/S 758 mmHg 65%
    10:00 +20°C° 0 mm 7 m/S 758 mmHg 59%
    11:00 +21°C° 0 mm 8 m/S 758 mmHg 54%
    12:00 +22°C° 0.2 mm 8 m/S 757 mmHg 52%
    13:00 +22°C° 0.2 mm 8 m/S 757 mmHg 50%
    14:00 +22°C° 0.2 mm 8 m/S 756 mmHg 49%
    15:00 +22°C° 0.5 mm 7 m/S 756 mmHg 53%
    16:00 +21°C° 0.5 mm 6 m/S 756 mmHg 56%
    17:00 +20°C° 0.5 mm 6 m/S 757 mmHg 60%
    18:00 +19°C° 0.8 mm 6 m/S 757 mmHg 65%
    19:00 +19°C° 0.8 mm 5 m/S 757 mmHg 69%
    20:00 +17°C° 0.8 mm 5 m/S 757 mmHg 74%
    21:00 +17°C° 0.3 mm 5 m/S 757 mmHg 75%
    22:00 +17°C° 0.3 mm 5 m/S 757 mmHg 76%
    23:00 +16°C° 0.3 mm 5 m/S 757 mmHg 77%
    Mehr zeigen